Simultaneous Nadir Overpasses (SNOs) Predictions

Prediction of SNOs between GOES-16 and LANDSAT-8 Satellite Orbit:

Table of predicted SNOs for the next 14.0 days since TLE Epoch: 10/16/2023
Index Date Time (GOES-16) GOES-16 Lat,Lon LANDSAT-8 Lat,Lon Distance(km) Time Diff (sec)
1 10/16/2023 15:18:51 -0.05, -75.22 0.33, -76.88 189.61 80
2 10/18/2023 15:09:19 -0.05, -75.22 -0.31, -73.92 147.03 80
3 10/19/2023 03:30:43 0.05, -75.20 -0.78, -79.11 444.65 80
4 10/20/2023 14:57:06 -0.04, -75.22 -0.93, -70.96 483.91 80
5 10/21/2023 03:18:30 0.04, -75.20 -0.17, -76.15 107.66 80
6 10/23/2023 03:03:37 0.03, -75.20 0.48, -73.19 230.01 80
7 10/23/2023 15:24:52 -0.03, -75.22 0.61, -78.34 354.35 80
8 10/25/2023 15:12:38 -0.03, -75.23 -0.01, -75.37 15.47 80
9 10/27/2023 15:03:04 -0.03, -75.25 -0.65, -72.40 324.34 80
10 10/28/2023 03:24:27 0.03, -75.24 -0.47, -77.59 266.29 80
